Regional Weather Roundup
Issued by NWS

Home | Current Version | Previous Version | Text Only | Print | Product List | Glossary Off
Versions: 1 2 3 4 5 6 7 8 9 10 11 12 13 14 15 16 17 18 19 20 21 22 23 24 25 26 27 28 29 30 31 32 33 34 35 36 37 38 39 40 41 42 43 44 45 46 47 48 49 50

000
ASUS43 KBIS 270420
RWRND

NORTH DAKOTA REGIONAL WEATHER ROUNDUP
NATIONAL WEATHER SERVICE BISMARCK ND
1100 PM CDT TUE MAY 26 2015

NOTE: "FAIR" INDICATES FEW OR NO CLOUDS BELOW 12,000 FEET WITH NO
SIGNIFICANT WEATHER AND/OR OBSTRUCTIONS TO VISIBILITY.


NDZ001>003-009>011-017-270500-
NORTHWEST NORTH DAKOTA

CITY           SKY/WX    TMP DP  RH WIND       PRES   REMARKS
WILLISTON      MOCLDY    67  44  43 E9        29.90R
MINOT          PTCLDY    61  47  59 SW10      29.87R
MINOT AFB      PTCLDY    59  55  88 SW8       29.86R
$$

NDZ018>021-031>035-040>046-270500-
SOUTHWEST NORTH DAKOTA

CITY           SKY/WX    TMP DP  RH WIND       PRES   REMARKS
BISMARCK       CLEAR     61  52  72 CALM      29.91R
DICKINSON      PTCLDY    55  43  63 S8        29.93R
GARRISON         N/A     59  48  67 N3        29.90R
HETTINGER ARPT PTCLDY    51  46  83 CALM      29.97R
$$

NDZ004>008-012>016-024-026-027-054-270500-
NORTHEAST NORTH DAKOTA

CITY           SKY/WX    TMP DP  RH WIND       PRES   REMARKS
GRAND FORKS    PTCLDY    62  52  69 W7        29.76R
GRND FRKS AFB  MOCLDY    66  50  55 W6        29.77R
DEVILS LAKE    CLEAR     64  46  52 NW9       29.84R
$$

NDZ022-023-025-028>030-036>039-047>053-270500-
SOUTHEAST NORTH DAKOTA

CITY           SKY/WX    TMP DP  RH WIND       PRES   REMARKS
FARGO          PTCLDY    63  53  70 SW7       29.79R
JAMESTOWN      PTCLDY    65  45  48 NW13      29.84R
$$



USA.gov is the U.S. government's official web portal to all federal, state and local government web resources and services.